Menado / Dr. Sam Ratulangi, Indonesia

2:48 AM WITA on February 20, 2017 (GMT +0800)
Ratulangi | | Change Station

Elev 262 ft 1.53 °N, 124.92 °E | Updated 18 minutes ago

Clear
Clear
73 °F
Feels Like 73 °F
N
0
Wind Variable Wind from North

Today
High -- | Low -- °F
--% Chance of Precip.
Yesterday
High -- | Low -- °F
Precip. -- in
Pressure 29.83 in
Visibility 5.6 miles
Clouds Few 2200 ft
Dew Point 72 °F
Humidity 94%
Rainfall 0.00 in
Snow Depth Not available.
5:51 AM 5:56 PM
Last Quarter, 41% visible
METAR WAMM 191830Z 00000KT 9000 FEW022 23/22 Q1010 NOSIG
Pressure 29.83 in
Visibility 5.6 miles
Clouds Few 2200 ft
Dew Point 72 °F
Humidity 94%
Rainfall 0.00 in
Snow Depth Not available.
5:51 AM 5:56 PM
Last Quarter, 41% visible
METAR WAMM 191830Z 00000KT 9000 FEW022 23/22 Q1010 NOSIG

Get Your Daily Forecast Email!

Thanks for signing up!

Be on the lookout for a verification email in your inbox.

You'll start receiving the daily forecast at 8 AM.

×

10-Day Weather Forecast

×

Almanac

Astronomy

Feb. 20, 2017 Rise Set
Actual Time
Civil Twilight
Nautical Twilight
Astronomical Twilight
Moon
Length of Visible Light
Length of Day
Tomorrow will be .
, % of the Moon is Illuminated

Today's Extremes

Country Highs Country Lows

Community

WunderPhotos

Upload Photos

1,962,540 photos uploaded!

WunderBlog® & News

Nearby

Air Quality

  Air Quality AQ Index Pollutant
Not available.

Snow Depth

Station Depth Elevation

Earthquake Activity

City Distance Mag. Time & Date
Minimum magnitude displayed is 2.5.

Coastal Water Temperatures

Place Temperature

Stations

Nearby Weather Stations

Station Location Temp. Windchill Dew Point Humidity Wind Precip. Elev Updated Type